SL-12 R/B(2), 23683

Orbit data source: Space-Track

SL-12 R/B(2), 23683 is space debris in GEO originally from a launch on Wed, 11 Oct 1995 UTC launched from the Tyuratam Missile And Space Complex (TTMTR). Debris objects in space refer to the collection of defunct objects orbiting the Earth. Examples of debris include non-operational satellites, rocket bodies, and fragments generated from explosions, collisions, or faulty payload assembly.

Not visible in the next 10 days
Identifier
23683, 1995-054D
Orbit
GEO
Country
Flag of CISCIS
Related business
Manufacturer
RKKE
Mission
Spacecraft
Bus & Motor
BLOK DM, Unknown motor
Mass
2,440 kg wet, 2,440 kg dry
Launch date (UTC)
1995-10-11 (30 years ago)
Launch vehicle
Unknown
Launch site
Tyuratam Missile And Space Complex (TTMTR)
Object type
Payload
Rocket body
Debris
Shape & HBR
Cyl, 3.1 m
Radar Cross Section
23.597 m², Large (>1 m²)

Expand to show TLE details & history
Last TLE update: 1 month ago

TLE from 1 month ago
0 SL-12 R/B(2)
1 23683U 95054D   25266.55764235 -.00000334  00000-0  00000+0 0  9993
2 23683  14.9636   1.1750 0018657 102.1833 233.8401  1.00279520109694
Epoch: 2025-09-23T13:23Z
TLE epoch observation values (Epoch: 2025-09-23T13:23:00.299Z)
Latitude
-6.06827°
Longitude
134.34171°
Altitude
35,831.443 km
Speed
3.071 km/s
True Right ascension
22h 30m 57s
True Declination
-6° 03' 44"
Sunlit
Object was in daylight at epoch
Visualization orbit readout
Latitude
Unknown
Longitude
Unknown
Altitude
Unknown
Speed
Unknown
Apparent Right ascension
Unknown
Apparent Declination
Unknown
Sunlit
N/A
Visualization observer readout
Local Sidereal Time
10:58:18
Azimuth
Unknown
Elevation
Unknown
Doppler factor
Unknown
Orbital elements
Apogee altitude
35,864.057 km
Perigee altitude
35,706.728 km
Semi-major axis
42,163.53 km
Eccentricity
0.00187
Inclination
14.9636°
RAAN
1.175°
Arg. of periapsis
102.1833°
True anomaly
233.66773°
Mean anomaly
233.8401°
Eccentric anomaly
233.75389°
Mean motion
0.25069 °/min
Orbital period
1,436.03 mins
BSTAR
0
Loading maneuver chart data...
Computing Atmospheric mass density...
Loading historical data...
Loading historical data...
Loading historical data...
Loading historical data...
Loading historical data...
Loading historical data...
Loading historical data...

Documentation

Showing up to 5 results
|